Pine River, MN

6:32 PM CST on January 17, 2018 (GMT -0600)
Pine River Regional

Weather History for KPWC - January, 2013

Change the Weather History Date:

Wednesday, January 16, 2013

  Actual Average Record
Temperature  
Mean Temperature 14 °F -  
Max Temperature 28 °F 17 °F 37 °F (1999)
Min Temperature 0 °F 0 °F -36 °F (2009)
Degree Days  
Heating Degree Days 51    
Moisture  
Dew Point 6 °F    
Average Humidity 66    
Maximum Humidity 93    
Minimum Humidity 38    
Precipitation  
Precipitation 0.00 in - - ()
Sea Level Pressure  
Sea Level Pressure 29.85 in    
Wind  
Wind Speed 9 mph (NW)    
Max Wind Speed 15 mph    
Max Gust Speed 23 mph    
Visibility 9 miles    
Events Snow    
Averages and records for this station are not official NWS values.
T = Trace of Precipitation, MM = Missing Value Source: NWS Daily Summary

Daily Weather History Graph

Daily Weather History Graph

Search for Another Location

Airport or City:

Trip Planner

Search our weather history database for the weather conditions in past years. The results will help you decide how hot, cold, wet, or windy it might be!

Date:

Astronomy

Jan. 16, 2013 Rise Set
Actual Time 7:57 AM CST 4:58 PM CST
Civil Twilight 7:23 AM CST 5:32 PM CST
Nautical Twilight 6:45 AM CST 6:09 PM CST
Astronomical Twilight 6:09 AM CST 6:45 PM CST
Moon 10:10 AM CST (1/16) 11:16 PM CST (1/16)
Length of Visible Light 10h 08m
Length of Day
9h 01m
Waxing Crescent, 28% of the Moon is Illuminated
Jan 16
Waxing Crescent
Jan 18
First Quarter
Jan 26
Full
Feb 3
Last Quarter
Feb 10
New

Hourly Weather History & Observations

Time (CST) Temp. Windchill Dew Point Humidity Pressure Visibility Wind Dir Wind Speed Gust Speed Precip Events Conditions
12:13 AM 21.2 °F 8.9 °F 15.8 °F 80% 29.61 in 4.0 mi SSW 12.7 mph 16.1 mph N/A Snow Light Snow
12:33 AM 21.2 °F 8.9 °F 15.8 °F 80% 29.59 in 3.0 mi SSW 12.7 mph 20.7 mph N/A Snow Light Snow
12:52 AM 21.2 °F 8.9 °F 17.6 °F 86% 29.58 in 5.0 mi SSW 12.7 mph 23.0 mph N/A Snow Light Snow
1:12 AM 21.2 °F 9.5 °F 17.6 °F 86% 29.57 in 7.0 mi SSW 11.5 mph 19.6 mph N/A Snow Light Snow
1:33 AM 21.2 °F 8.9 °F 19.4 °F 93% 29.57 in 3.0 mi SSW 12.7 mph 20.7 mph N/A Snow Light Snow
1:53 AM 21.2 °F 10.1 °F 19.4 °F 93% 29.57 in 2.0 mi SW 10.4 mph - N/A Snow Light Snow
2:13 AM 23.0 °F 15.8 °F 19.4 °F 86% 29.57 in 3.0 mi SW 5.8 mph 16.1 mph N/A Snow Light Snow
2:33 AM 23.0 °F 12.4 °F 19.4 °F 86% 29.58 in 4.0 mi SW 10.4 mph 16.1 mph N/A Snow Light Snow
2:52 AM 24.8 °F 16.9 °F 21.2 °F 86% 29.57 in 2.5 mi SW 6.9 mph - N/A Snow Light Snow
3:12 AM 24.8 °F 20.5 °F 21.2 °F 86% 29.58 in 7.0 mi WSW 3.5 mph - N/A Snow Light Snow
3:33 AM 24.8 °F 20.5 °F 21.2 °F 86% 29.57 in 4.0 mi WSW 3.5 mph - N/A   Overcast
3:52 AM 24.8 °F 17.9 °F 21.2 °F 86% 29.57 in 5.0 mi WSW 5.8 mph - N/A   Overcast
4:12 AM 24.8 °F - 23.0 °F 93% 29.57 in 4.0 mi Calm Calm - N/A Snow Light Snow
4:33 AM 26.6 °F 22.6 °F 24.8 °F 93% 29.57 in 10.0 mi West 3.5 mph - N/A   Overcast
4:53 AM 28.4 °F 20.4 °F 26.6 °F 93% 29.57 in 10.0 mi West 8.1 mph - N/A   Overcast
5:13 AM 28.4 °F 20.4 °F 26.6 °F 93% 29.57 in 10.0 mi WNW 8.1 mph 18.4 mph N/A   Overcast
5:33 AM 28.4 °F 19.7 °F 24.8 °F 86% 29.57 in 10.0 mi WNW 9.2 mph 16.1 mph N/A   Mostly Cloudy
5:52 AM 28.4 °F 20.4 °F 24.8 °F 86% 29.58 in 10.0 mi WNW 8.1 mph - N/A   Mostly Cloudy
6:33 AM 28.4 °F 21.2 °F 23.0 °F 80% 29.60 in 10.0 mi NW 6.9 mph - N/A   Overcast
6:52 AM 26.6 °F 15.2 °F 21.2 °F 80% 29.62 in 10.0 mi NW 13.8 mph 20.7 mph N/A   Overcast
7:12 AM 24.8 °F 15.3 °F 19.4 °F 80% 29.64 in 10.0 mi WNW 9.2 mph 17.3 mph N/A   Overcast
7:33 AM 24.8 °F 15.3 °F 19.4 °F 80% 29.66 in 10.0 mi WNW 9.2 mph - N/A   Overcast
7:53 AM 24.8 °F 16.1 °F 19.4 °F 80% 29.67 in 10.0 mi NW 8.1 mph - N/A   Overcast
8:12 AM 24.8 °F 13.4 °F 19.4 °F 80% 29.68 in 10.0 mi NW 12.7 mph 17.3 mph N/A   Overcast
8:33 AM 23.0 °F 13.9 °F 17.6 °F 80% 29.69 in 10.0 mi NW 8.1 mph 17.3 mph N/A   Overcast
8:52 AM 23.0 °F 13.1 °F 17.6 °F 80% 29.70 in 10.0 mi NW 9.2 mph - N/A   Overcast
9:10 AM 21.2 °F 10.1 °F 15.8 °F 80% 29.72 in 10.0 mi NW 10.4 mph 16.1 mph N/A   Mostly Cloudy
9:33 AM 21.2 °F 10.1 °F 15.8 °F 80% 29.74 in 10.0 mi NNW 10.4 mph 16.1 mph N/A   Clear
9:53 AM 21.2 °F 9.5 °F 14.0 °F 74% 29.76 in 10.0 mi NW 11.5 mph 19.6 mph N/A   Mostly Cloudy
10:13 AM 19.4 °F 7.2 °F 12.2 °F 74% 29.78 in 10.0 mi NNW 11.5 mph 18.4 mph N/A   Scattered Clouds
10:33 AM 17.6 °F 4.3 °F 12.2 °F 79% 29.79 in 10.0 mi NW 12.7 mph 16.1 mph N/A   Clear
10:53 AM 17.6 °F 6.4 °F 10.4 °F 73% 29.80 in 10.0 mi NW 9.2 mph - N/A   Clear
11:12 AM 17.6 °F 6.4 °F 10.4 °F 73% 29.81 in 10.0 mi NW 9.2 mph 16.1 mph N/A   Clear
11:32 AM 17.6 °F 6.4 °F 6.8 °F 63% 29.81 in 10.0 mi NNW 9.2 mph - N/A   Clear
11:53 AM 17.6 °F 6.4 °F 5.0 °F 58% 29.82 in 10.0 mi NNW 9.2 mph - N/A   Scattered Clouds
12:12 PM 17.6 °F 5.0 °F 3.2 °F 53% 29.83 in 10.0 mi NNW 11.5 mph 17.3 mph N/A   Clear
12:32 PM 17.6 °F 7.3 °F 5.0 °F 58% 29.83 in 10.0 mi NNW 8.1 mph - N/A   Scattered Clouds
12:53 PM 17.6 °F 8.2 °F 3.2 °F 53% 29.85 in 10.0 mi WNW 6.9 mph - N/A   Scattered Clouds
1:12 PM 17.6 °F 5.7 °F 1.4 °F 49% 29.86 in 10.0 mi NNW 10.4 mph 17.3 mph N/A   Scattered Clouds
1:33 PM 17.6 °F 4.3 °F -0.4 °F 45% 29.87 in 10.0 mi NNW 12.7 mph 18.4 mph N/A   Mostly Cloudy
1:52 PM 17.6 °F 7.3 °F -0.4 °F 45% 29.89 in 10.0 mi NNW 8.1 mph - N/A   Scattered Clouds
2:13 PM 17.6 °F 4.3 °F -0.4 °F 45% 29.90 in 10.0 mi NNW 12.7 mph 19.6 mph N/A   Clear
2:32 PM 17.6 °F 3.2 °F -4.0 °F 38% 29.91 in 10.0 mi NW 15.0 mph 18.4 mph N/A   Clear
2:53 PM 15.8 °F 3.4 °F -2.2 °F 45% 29.93 in 10.0 mi NW 10.4 mph 17.3 mph N/A   Clear
3:12 PM 15.8 °F 2.7 °F -2.2 °F 45% 29.95 in 10.0 mi NW 11.5 mph - N/A   Clear
3:33 PM 15.8 °F 2.7 °F -4.0 °F 41% 29.96 in 10.0 mi NNW 11.5 mph 18.4 mph N/A   Clear
3:52 PM 15.8 °F 3.4 °F -2.2 °F 45% 29.97 in 10.0 mi NNW 10.4 mph 16.1 mph N/A   Clear
4:13 PM 15.8 °F 2.7 °F -4.0 °F 41% 29.99 in 10.0 mi NNW 11.5 mph - N/A   Clear
4:33 PM 14.0 °F -0.2 °F -5.8 °F 41% 30.01 in 10.0 mi NNW 12.7 mph 18.4 mph N/A   Clear
4:53 PM 12.2 °F 0.7 °F -5.8 °F 45% 30.01 in 10.0 mi NNW 8.1 mph - N/A   Clear
5:13 PM 12.2 °F 2.9 °F -5.8 °F 45% 30.04 in 10.0 mi NNW 5.8 mph - N/A   Clear
5:33 PM 10.4 °F -1.5 °F -7.6 °F 44% 30.07 in 10.0 mi NW 8.1 mph 17.3 mph N/A   Clear
5:53 PM 10.4 °F -1.5 °F -7.6 °F 44% 30.09 in 10.0 mi NNW 8.1 mph - N/A   Clear
6:12 PM 8.6 °F -4.7 °F -7.6 °F 48% 30.10 in 10.0 mi NNW 9.2 mph 16.1 mph N/A   Clear
6:33 PM 8.6 °F -2.6 °F -7.6 °F 48% 30.11 in 10.0 mi NNW 6.9 mph - N/A   Clear
6:53 PM 6.8 °F -5.9 °F -7.6 °F 52% 30.10 in 10.0 mi NNW 8.1 mph - N/A   Clear
7:12 PM 6.8 °F -3.5 °F -7.6 °F 52% 30.12 in 10.0 mi NNW 5.8 mph - N/A   Clear
7:33 PM 6.8 °F -4.8 °F -7.6 °F 52% 30.13 in 10.0 mi NW 6.9 mph - N/A   Clear
7:53 PM 5.0 °F -8.1 °F -7.6 °F 56% 30.15 in 10.0 mi NW 8.1 mph - N/A   Clear
8:13 PM 3.2 °F -7.8 °F -7.6 °F 61% 30.15 in 10.0 mi NW 5.8 mph - N/A   Clear
8:51 PM 3.2 °F -7.8 °F -9.4 °F 56% 30.16 in 10.0 mi NW 5.8 mph - N/A   Clear
9:13 PM 1.4 °F -8.3 °F -9.4 °F 61% 30.17 in 10.0 mi NW 4.6 mph - N/A   Clear
9:33 PM 1.4 °F -8.3 °F -9.4 °F 61% 30.18 in 10.0 mi NW 4.6 mph - N/A   Mostly Cloudy
9:53 PM 1.4 °F -11.3 °F -9.4 °F 61% 30.18 in 10.0 mi NW 6.9 mph - N/A   Overcast
10:12 PM 1.4 °F -11.3 °F -11.2 °F 56% 30.20 in 10.0 mi WNW 6.9 mph - N/A   Overcast
10:32 PM 1.4 °F -11.3 °F -11.2 °F 56% 30.21 in 10.0 mi WNW 6.9 mph - N/A   Overcast
10:53 PM 1.4 °F -14.5 °F -11.2 °F 56% 30.23 in 10.0 mi NW 10.4 mph 16.1 mph N/A   Overcast
11:13 PM 1.4 °F -8.3 °F -11.2 °F 56% 30.24 in 10.0 mi NNW 4.6 mph - N/A   Overcast
11:33 PM -0.4 °F -10.4 °F -11.2 °F 60% 30.24 in 10.0 mi NNW 4.6 mph - N/A   Overcast
11:53 PM -0.4 °F -12.0 °F -11.2 °F 60% 30.25 in 10.0 mi NW 5.8 mph - N/A   Overcast